Lid_Strength_Index
1 1 2 2 2 2 3 2 1 2 2 2 2 2 1 1 1 1 2 2 1 1
1 1 2 1 2 2 2 2 1 1 2 2 3 3 3 3 2 1 1 1 1 2
1 1 1 1 1 2 2 2 2 2 2 3 3 3 2 2 3 3 1 1 2 2
2 1 1 1 1 1 1 1 2 2 2 2 2 2 2 2 3 3 2 2 2 2
2 2 2 2 1 1 1 1 1 2 2 2 2 2 3 3 3 3 3 3 2 2
2 2 2 2 1 1 1 1 1 2 2 2 2 2 2 2 3 3 3 3 3 3
2 2 2 1 1 2 1 2 2 2 2 2 2 2 3 2 3 3 3 3 3 3
3 2 2 2 2 2 2 2 2 2 2 2 2 2 3 3 3 3 3 4 4 3
4 4 4 3 3 3 3 3 3 2 2 3 3 6 7 4 3 3 4 5 5 4
6 6 5 4 5 6 4 3 4 3 3 3 3 8 9 9 3 3 4 4 5 7
9 8 8 9 7 6 6 5 5 4 3 3 3 9 9 10 3 5 4 4 6 7
10 10 10 10 8 6 7 6 5 5 5 4 5 10 10 10 5 6 8 6 7 8
11 12 11 10 9 8 7 6 7 9 7 9 5 10 10 9 7 12 12 15 13 14
11 12 11 10 10 9 8 10 10 10 11 12 11 11 10 10 11 10 14 13 15 14